Location: *
(49.3500°N, 12.6000°E)
Time: 18:19:42
(UTC+00:00)

Cosmos 1703 - Pass Details

Date: 18 October 2019
Orbit: 524 x 542 km, 82.5° (Epoch: 14 November)

Event Time Altitude Azimuth Distance (km) Brightness Sun altitude
Rises 17:04:38 0° 353° (N) 2,701 6.9 -8.9°
Reaches altitude 10° 17:06:51 10° 359° (N) 1,801 5.9 -9.3°
Maximum altitude 17:10:44 53° 77° (ENE) 659 3.3 -9.9°
Drops below altitude 10° 17:14:34 10° 155° (SSE) 1,775 5.7 -10.6°
Sets 17:16:43 0° 160° (SSE) 2,657 6.6 -10.9°
